MSC387 HEAX-LGSM

Flight info

Callsign MSC387
Flight time 1h 16m
Altitude 38000
Route NOZ1B NOZ L551 ANTAR UW54 RDS UL609 LARKI
Aircraft A320/M-SDE3FGHIRWY/LB1

Departure

Time 2026-05-09 12:43
Airport Alexandria International Airport (HEAX)

Arrival

Time 2026-05-09 13:59
Airport Samos Airport (LGSM)
Time Latitude Longitude Altitude Speed Heading
2026-05-09 12:36 30.93113 29.69473 183 ft 0 kts 142°
2026-05-09 12:37 30.93093 29.69491 183 ft 8 kts 142°
2026-05-09 12:37 30.93036 29.69542 182 ft 10 kts 142°
2026-05-09 12:37 30.92975 29.69596 181 ft 13 kts 144°
2026-05-09 12:37 30.92881 29.69611 183 ft 16 kts 227°
2026-05-09 12:38 30.92816 29.69511 183 ft 15 kts 232°
2026-05-09 12:38 30.92738 29.69393 183 ft 21 kts 233°
2026-05-09 12:38 30.92636 29.69235 183 ft 26 kts 232°
2026-05-09 12:38 30.92525 29.69065 184 ft 26 kts 233°
2026-05-09 12:39 30.92455 29.69025 183 ft 8 kts 143°
2026-05-09 12:39 30.92378 29.69095 183 ft 20 kts 143°
2026-05-09 12:39 30.92231 29.69224 185 ft 31 kts 143°
2026-05-09 12:39 30.92055 29.69379 183 ft 33 kts 142°
2026-05-09 12:40 30.91869 29.69543 181 ft 34 kts 144°
2026-05-09 12:40 30.91674 29.69711 182 ft 36 kts 143°
2026-05-09 12:40 30.91474 29.69885 184 ft 36 kts 142°
2026-05-09 12:40 30.91271 29.70063 184 ft 37 kts 143°
2026-05-09 12:41 30.91045 29.70216 181 ft 39 kts 169°
2026-05-09 12:41 30.90780 29.70261 180 ft 36 kts 174°
2026-05-09 12:41 30.90599 29.70344 182 ft 19 kts 140°
2026-05-09 12:41 30.90502 29.70440 182 ft 17 kts 122°
2026-05-09 12:42 30.90540 29.70555 182 ft 17 kts 52°
2026-05-09 12:42 30.90615 29.70632 181 ft 12 kts 345°
2026-05-09 12:42 30.90695 29.70566 180 ft 18 kts 323°
2026-05-09 12:42 30.90921 29.70369 180 ft 74 kts 323°
2026-05-09 12:43 30.91511 29.69854 184 ft 133 kts 323°
2026-05-09 12:43 30.92365 29.69098 371 ft 164 kts 325°
2026-05-09 12:43 30.93282 29.68299 1077 ft 165 kts 329°
2026-05-09 12:43 30.94308 29.67745 1853 ft 162 kts 344°
2026-05-09 12:44 30.95409 29.67277 2310 ft 179 kts 343°
2026-05-09 12:44 30.96667 29.66798 2669 ft 202 kts 356°
2026-05-09 12:44 30.97795 29.67011 2990 ft 215 kts 30°
2026-05-09 12:44 30.98868 29.68324 3486 ft 239 kts 59°
2026-05-09 12:45 30.99580 29.70166 4230 ft 256 kts 68°
2026-05-09 12:45 31.00174 29.72157 5144 ft 263 kts 69°
2026-05-09 12:45 31.00765 29.74198 6035 ft 270 kts 68°
2026-05-09 12:45 31.01403 29.76287 6924 ft 275 kts 67°
2026-05-09 12:46 31.02086 29.78385 7842 ft 279 kts 66°
2026-05-09 12:46 31.02978 29.80398 8683 ft 280 kts 51°
2026-05-09 12:46 31.04341 29.82014 9489 ft 281 kts 36°
2026-05-09 12:46 31.05903 29.83414 10311 ft 287 kts 35°
2026-05-09 12:47 31.07552 29.84893 10576 ft 311 kts 35°
2026-05-09 12:47 31.09317 29.86483 10926 ft 328 kts 36°
2026-05-09 12:47 31.11146 29.88142 11565 ft 336 kts 35°
2026-05-09 12:47 31.12999 29.89830 12260 ft 341 kts 36°
2026-05-09 12:48 31.14911 29.91513 12934 ft 346 kts 30°
2026-05-09 12:48 31.17090 29.92697 13591 ft 347 kts 14°
2026-05-09 12:48 31.19466 29.93144 14220 ft 348 kts 358°
2026-05-09 12:48 31.21873 29.92815 14832 ft 349 kts 343°
2026-05-09 12:49 31.24144 29.91735 15467 ft 350 kts 330°
2026-05-09 12:49 31.26269 29.90409 16089 ft 353 kts 330°
2026-05-09 12:49 31.28433 29.89055 16708 ft 356 kts 330°
2026-05-09 12:49 31.30666 29.87654 17331 ft 359 kts 330°
2026-05-09 12:50 31.32880 29.86261 17944 ft 362 kts 330°
2026-05-09 12:50 31.35099 29.84868 18519 ft 366 kts 331°
2026-05-09 12:50 31.37353 29.83456 19042 ft 369 kts 330°
2026-05-09 12:50 31.39629 29.82034 19570 ft 372 kts 330°
2026-05-09 12:51 31.41913 29.80607 20106 ft 374 kts 330°
2026-05-09 12:51 31.44220 29.79163 20650 ft 377 kts 330°
2026-05-09 12:51 31.46555 29.77700 21186 ft 380 kts 330°
2026-05-09 12:51 31.48898 29.76228 21726 ft 383 kts 330°
2026-05-09 12:52 31.51257 29.74744 22265 ft 386 kts 330°
2026-05-09 12:52 31.53633 29.73249 22805 ft 389 kts 329°
2026-05-09 12:52 31.56027 29.71740 23330 ft 392 kts 329°
2026-05-09 12:52 31.58439 29.70218 23813 ft 395 kts 329°
2026-05-09 12:53 31.60870 29.68686 24244 ft 398 kts 329°
2026-05-09 12:53 31.63315 29.67149 24666 ft 400 kts 329°
2026-05-09 12:53 31.65776 29.65603 25075 ft 402 kts 329°
2026-05-09 12:53 31.68250 29.64045 25469 ft 405 kts 329°
2026-05-09 12:54 31.70734 29.62477 25866 ft 407 kts 329°
2026-05-09 12:54 31.73235 29.60898 26256 ft 409 kts 328°
2026-05-09 12:54 31.75745 29.59310 26626 ft 411 kts 328°
2026-05-09 12:54 31.78273 29.57710 27007 ft 413 kts 328°
2026-05-09 12:55 31.80807 29.56108 27378 ft 415 kts 328°
2026-05-09 12:55 31.83361 29.54493 27745 ft 418 kts 328°
2026-05-09 12:55 31.85922 29.52871 28104 ft 420 kts 328°
2026-05-09 12:55 31.88504 29.51236 28466 ft 422 kts 328°
2026-05-09 12:56 31.91095 29.49594 28819 ft 424 kts 328°
2026-05-09 12:56 31.93687 29.47949 29173 ft 425 kts 328°
2026-05-09 12:56 31.96297 29.46285 29503 ft 427 kts 328°
2026-05-09 12:56 31.98069 29.45156 29729 ft 429 kts 328°
2026-05-09 12:57 32.01555 29.42939 30164 ft 431 kts 328°
2026-05-09 12:57 32.03332 29.41810 30333 ft 432 kts 328°
2026-05-09 12:57 32.05988 29.40120 30598 ft 433 kts 328°
2026-05-09 12:57 32.08647 29.38430 30850 ft 435 kts 328°
2026-05-09 12:58 32.11314 29.36735 31098 ft 437 kts 328°
2026-05-09 12:58 32.13996 29.35028 31336 ft 438 kts 328°
2026-05-09 12:58 32.16671 29.33320 31587 ft 439 kts 328°
2026-05-09 12:58 32.19355 29.31602 31919 ft 438 kts 328°
2026-05-09 12:59 32.22032 29.29889 32257 ft 437 kts 328°
2026-05-09 12:59 32.24696 29.28182 32583 ft 436 kts 328°
2026-05-09 12:59 32.27356 29.26474 32917 ft 435 kts 328°
2026-05-09 12:59 32.30008 29.24768 33237 ft 434 kts 328°
2026-05-09 13:00 32.32658 29.23065 33568 ft 433 kts 328°
2026-05-09 13:00 32.35293 29.21372 33900 ft 432 kts 328°
2026-05-09 13:00 32.37930 29.19677 34218 ft 430 kts 328°
2026-05-09 13:00 32.40558 29.17987 34516 ft 429 kts 328°
2026-05-09 13:01 32.43181 29.16299 34801 ft 428 kts 328°
2026-05-09 13:01 32.45795 29.14615 35082 ft 427 kts 328°
2026-05-09 13:01 32.48401 29.12934 35341 ft 426 kts 328°
2026-05-09 13:01 32.51010 29.11254 35592 ft 426 kts 328°
2026-05-09 13:02 32.53609 29.09585 35846 ft 425 kts 328°
2026-05-09 13:02 32.56204 29.07918 36088 ft 424 kts 328°
2026-05-09 13:02 32.58799 29.06247 36319 ft 423 kts 328°
2026-05-09 13:02 32.61382 29.04580 36548 ft 422 kts 328°
2026-05-09 13:03 32.63956 29.02917 36780 ft 422 kts 328°
2026-05-09 13:03 32.66564 29.01226 36991 ft 421 kts 328°
2026-05-09 13:03 32.69102 28.99577 37201 ft 420 kts 328°
2026-05-09 13:03 32.71695 28.97890 37406 ft 420 kts 328°
2026-05-09 13:04 32.74256 28.96227 37616 ft 419 kts 328°
2026-05-09 13:04 32.76812 28.94566 37809 ft 419 kts 328°
2026-05-09 13:04 32.79367 28.92909 38009 ft 418 kts 328°
2026-05-09 13:05 32.84473 28.89596 38099 ft 418 kts 328°
2026-05-09 13:05 32.89569 28.86273 38099 ft 417 kts 328°
2026-05-09 13:06 32.94637 28.82968 38094 ft 416 kts 328°
2026-05-09 13:06 32.99726 28.79650 38098 ft 416 kts 328°
2026-05-09 13:07 33.04790 28.76343 38097 ft 415 kts 328°
2026-05-09 13:07 33.09851 28.73030 38096 ft 415 kts 328°
2026-05-09 13:08 33.14904 28.69716 38096 ft 414 kts 328°
2026-05-09 13:08 33.19944 28.66407 38095 ft 413 kts 328°
2026-05-09 13:09 33.24971 28.63099 38095 ft 412 kts 328°
2026-05-09 13:09 33.30001 28.59806 38095 ft 412 kts 328°
2026-05-09 13:10 33.35012 28.56507 38097 ft 411 kts 328°
2026-05-09 13:10 33.40018 28.53195 38093 ft 410 kts 327°
2026-05-09 13:11 33.45014 28.49896 38094 ft 410 kts 328°
2026-05-09 13:11 33.50006 28.46604 38092 ft 409 kts 327°
2026-05-09 13:12 33.55021 28.43284 38093 ft 409 kts 327°
2026-05-09 13:12 33.59961 28.40003 38091 ft 408 kts 327°
2026-05-09 13:13 33.64911 28.36719 38092 ft 408 kts 327°
2026-05-09 13:13 33.69870 28.33428 38091 ft 407 kts 327°
2026-05-09 13:14 33.74821 28.30123 38088 ft 407 kts 327°
2026-05-09 13:16 33.97399 28.25439 38090 ft 421 kts 351°
2026-05-09 13:16 34.03254 28.25023 38087 ft 421 kts 351°
2026-05-09 13:17 34.09112 28.24604 38089 ft 421 kts 351°
2026-05-09 13:17 34.14959 28.24193 38084 ft 421 kts 351°
2026-05-09 13:18 34.20803 28.23773 38084 ft 421 kts 350°
2026-05-09 13:18 34.26653 28.23351 38078 ft 421 kts 351°
2026-05-09 13:19 34.32502 28.22948 38093 ft 421 kts 351°
2026-05-09 13:19 34.38360 28.22528 38088 ft 421 kts 350°
2026-05-09 13:20 34.44195 28.22103 38087 ft 421 kts 350°
2026-05-09 13:20 34.50068 28.21686 38082 ft 421 kts 350°
2026-05-09 13:21 34.55919 28.21277 38084 ft 421 kts 350°
2026-05-09 13:21 34.61770 28.20855 38081 ft 421 kts 350°
2026-05-09 13:22 34.67659 28.20421 38082 ft 421 kts 350°
2026-05-09 13:22 34.73512 28.20004 38076 ft 421 kts 350°
2026-05-09 13:23 34.88144 28.18960 38080 ft 421 kts 349°
2026-05-09 13:24 34.93997 28.18533 38074 ft 421 kts 349°
2026-05-09 13:24 34.99835 28.18102 38082 ft 421 kts 349°
2026-05-09 13:25 35.05696 28.17679 38071 ft 421 kts 349°
2026-05-09 13:26 35.14476 28.17048 38077 ft 421 kts 349°
2026-05-09 13:26 35.20329 28.16627 38076 ft 421 kts 349°
2026-05-09 13:27 35.26183 28.16198 38064 ft 421 kts 349°
2026-05-09 13:27 35.32027 28.15771 38070 ft 421 kts 349°
2026-05-09 13:28 35.37874 28.15341 38071 ft 421 kts 349°
2026-05-09 13:28 35.43727 28.14907 38066 ft 421 kts 349°
2026-05-09 13:29 35.49572 28.14479 38066 ft 421 kts 349°
2026-05-09 13:29 35.55421 28.14051 38064 ft 421 kts 348°
2026-05-09 13:30 35.60315 28.13688 38060 ft 421 kts 348°
2026-05-09 13:30 35.66167 28.13256 38062 ft 421 kts 348°
2026-05-09 13:31 35.72012 28.12830 38060 ft 421 kts 348°
2026-05-09 13:31 35.77860 28.12401 38060 ft 421 kts 348°
2026-05-09 13:32 35.83706 28.11968 38059 ft 421 kts 348°
2026-05-09 13:32 35.92489 28.11314 38056 ft 421 kts 348°
2026-05-09 13:33 35.98324 28.10878 38054 ft 421 kts 348°
2026-05-09 13:33 36.04168 28.10440 38049 ft 421 kts 348°
2026-05-09 13:34 36.07105 28.10221 37856 ft 421 kts 348°
2026-05-09 13:34 36.10020 28.10005 37588 ft 420 kts 348°
2026-05-09 13:34 36.12939 28.09788 37321 ft 420 kts 348°
2026-05-09 13:34 36.15856 28.09572 36875 ft 419 kts 347°
2026-05-09 13:35 36.18768 28.09353 36147 ft 420 kts 347°
2026-05-09 13:35 36.21690 28.09133 35402 ft 421 kts 347°
2026-05-09 13:35 36.24607 28.08914 34785 ft 418 kts 347°
2026-05-09 13:35 36.27487 28.08703 34295 ft 413 kts 347°
2026-05-09 13:36 36.30328 28.08383 33738 ft 402 kts 340°
2026-05-09 13:36 36.32965 28.07500 33244 ft 384 kts 330°
2026-05-09 13:36 36.35358 28.06080 32723 ft 370 kts 321°
2026-05-09 13:36 36.37416 28.04249 32230 ft 358 kts 313°
2026-05-09 13:37 36.39227 28.02175 31750 ft 353 kts 311°
2026-05-09 13:37 36.41016 28.00110 31278 ft 349 kts 311°
2026-05-09 13:37 36.42783 27.98075 30819 ft 345 kts 311°
2026-05-09 13:37 36.44536 27.96056 30363 ft 342 kts 311°
2026-05-09 13:38 36.46274 27.94051 29881 ft 339 kts 311°
2026-05-09 13:38 36.47986 27.92071 29429 ft 334 kts 311°
2026-05-09 13:38 36.49677 27.90111 28994 ft 330 kts 310°
2026-05-09 13:38 36.51344 27.88179 28580 ft 326 kts 310°
2026-05-09 13:39 36.52993 27.86272 28170 ft 322 kts 310°
2026-05-09 13:39 36.54617 27.84390 27780 ft 318 kts 310°
2026-05-09 13:39 36.56225 27.82521 27394 ft 314 kts 310°
2026-05-09 13:39 36.57801 27.80687 27011 ft 310 kts 310°
2026-05-09 13:40 36.59376 27.78854 26647 ft 309 kts 310°
2026-05-09 13:40 36.60946 27.77023 26280 ft 309 kts 310°
2026-05-09 13:40 36.62514 27.75195 25910 ft 309 kts 310°
2026-05-09 13:40 36.64075 27.73374 25536 ft 309 kts 310°
2026-05-09 13:41 36.65648 27.71543 25170 ft 309 kts 310°
2026-05-09 13:41 36.67216 27.69720 24774 ft 308 kts 310°
2026-05-09 13:41 36.68785 27.67900 24387 ft 308 kts 310°
2026-05-09 13:41 36.70354 27.66077 23992 ft 308 kts 310°
2026-05-09 13:42 36.71916 27.64252 23589 ft 308 kts 310°
2026-05-09 13:42 36.73480 27.62421 23134 ft 308 kts 310°
2026-05-09 13:42 36.75061 27.60568 22720 ft 308 kts 310°
2026-05-09 13:42 36.76617 27.58742 22312 ft 307 kts 310°
2026-05-09 13:43 36.78165 27.56931 21919 ft 304 kts 310°
2026-05-09 13:43 36.79703 27.55133 21522 ft 302 kts 310°
2026-05-09 13:43 36.81231 27.53346 21130 ft 300 kts 310°
2026-05-09 13:43 36.82751 27.51569 20751 ft 298 kts 310°
2026-05-09 13:44 36.84264 27.49797 20364 ft 297 kts 310°
2026-05-09 13:44 36.85763 27.48038 19986 ft 295 kts 310°
2026-05-09 13:44 36.87257 27.46285 19605 ft 294 kts 311°
2026-05-09 13:44 36.88744 27.44539 19229 ft 293 kts 311°
2026-05-09 13:45 36.90228 27.42792 18850 ft 292 kts 311°
2026-05-09 13:45 36.91704 27.41055 18472 ft 292 kts 311°
2026-05-09 13:45 36.93184 27.39313 18072 ft 291 kts 311°
2026-05-09 13:45 36.94649 27.37588 17704 ft 289 kts 311°
2026-05-09 13:46 36.96113 27.35864 17337 ft 288 kts 311°
2026-05-09 13:46 36.97561 27.34160 16977 ft 286 kts 311°
2026-05-09 13:46 36.99008 27.32452 16626 ft 285 kts 311°
2026-05-09 13:46 37.00444 27.30752 16272 ft 285 kts 311°
2026-05-09 13:47 37.01885 27.29047 15910 ft 285 kts 312°
2026-05-09 13:47 37.03323 27.27349 15570 ft 284 kts 312°
2026-05-09 13:47 37.04758 27.25657 15220 ft 284 kts 312°
2026-05-09 13:47 37.06195 27.23961 14873 ft 284 kts 312°
2026-05-09 13:48 37.07631 27.22260 14525 ft 284 kts 312°
2026-05-09 13:48 37.09069 27.20553 14164 ft 284 kts 313°
2026-05-09 13:48 37.10506 27.18847 13811 ft 285 kts 313°
2026-05-09 13:48 37.11946 27.17139 13429 ft 285 kts 313°
2026-05-09 13:49 37.13380 27.15442 13074 ft 283 kts 313°
2026-05-09 13:49 37.14829 27.13727 12712 ft 282 kts 313°
2026-05-09 13:49 37.16253 27.12040 12357 ft 281 kts 313°
2026-05-09 13:49 37.17652 27.10380 12004 ft 280 kts 313°
2026-05-09 13:50 37.19079 27.08684 11642 ft 279 kts 313°
2026-05-09 13:50 37.20469 27.07028 11288 ft 278 kts 313°
2026-05-09 13:50 37.21889 27.05336 10919 ft 277 kts 313°
2026-05-09 13:50 37.23269 27.03692 10559 ft 277 kts 313°
2026-05-09 13:51 37.24681 27.02012 10192 ft 276 kts 313°
2026-05-09 13:51 37.26073 27.00354 10070 ft 278 kts 313°
2026-05-09 13:51 37.27482 26.98673 9858 ft 281 kts 313°
2026-05-09 13:51 37.28900 26.96981 9417 ft 281 kts 313°
2026-05-09 13:52 37.30312 26.95296 9035 ft 279 kts 313°
2026-05-09 13:52 37.31714 26.93622 8654 ft 277 kts 313°
2026-05-09 13:52 37.33107 26.91957 8248 ft 277 kts 313°
2026-05-09 13:52 37.34497 26.90294 7869 ft 276 kts 313°
2026-05-09 13:53 37.35890 26.88629 7489 ft 275 kts 313°
2026-05-09 13:53 37.37267 26.86981 7122 ft 273 kts 313°
2026-05-09 13:53 37.38714 26.85439 6747 ft 274 kts 325°
2026-05-09 13:53 37.40486 26.84550 6373 ft 278 kts 346°
2026-05-09 13:54 37.42424 26.84513 5971 ft 281 kts
2026-05-09 13:54 37.44341 26.85022 5587 ft 280 kts 11°
2026-05-09 13:54 37.46237 26.85534 5206 ft 278 kts 11°
2026-05-09 13:54 37.48122 26.86037 4825 ft 276 kts 11°
2026-05-09 13:55 37.49994 26.86535 4439 ft 273 kts 11°
2026-05-09 13:55 37.51842 26.87028 4067 ft 270 kts 12°
2026-05-09 13:55 37.53672 26.87518 3699 ft 267 kts 12°
2026-05-09 13:55 37.55473 26.88002 3338 ft 264 kts 12°
2026-05-09 13:56 37.57269 26.88482 2972 ft 262 kts 12°
2026-05-09 13:56 37.59045 26.88956 2614 ft 259 kts 13°
2026-05-09 13:56 37.60790 26.89423 2332 ft 252 kts 12°
2026-05-09 13:56 37.62464 26.89869 1952 ft 241 kts 12°
2026-05-09 13:57 37.64022 26.90024 1695 ft 216 kts 346°
2026-05-09 13:57 37.65301 26.89205 1377 ft 203 kts 321°
2026-05-09 13:57 37.66385 26.88159 1137 ft 184 kts 322°
2026-05-09 13:57 37.67332 26.87225 987 ft 165 kts 319°
2026-05-09 13:58 37.68221 26.86434 911 ft 151 kts 334°
2026-05-09 13:58 37.69208 26.86536 763 ft 157 kts 41°
2026-05-09 13:58 37.69495 26.87685 678 ft 141 kts 118°
2026-05-09 13:58 37.69083 26.88898 487 ft 152 kts 104°
2026-05-09 13:59 37.68981 26.90213 94 ft 151 kts 97°
2026-05-09 13:59 37.68895 26.91444 23 ft 122 kts 94°
2026-05-09 13:59 37.68857 26.92144 22 ft 35 kts 94°
2026-05-09 13:59 37.68847 26.92335 21 ft 15 kts 91°
2026-05-09 14:00 37.68841 26.92415 21 ft 8 kts 170°
2026-05-09 14:00 37.68826 26.92406 21 ft 7 kts 219°
2026-05-09 14:00 37.68852 26.92253 21 ft 15 kts 274°
2026-05-09 14:00 37.68861 26.92095 22 ft 21 kts 274°
2026-05-09 14:01 37.68873 26.91900 21 ft 24 kts 274°
2026-05-09 14:01 37.68884 26.91714 22 ft 16 kts 278°
2026-05-09 14:01 37.68926 26.91677 23 ft 5 kts 347°
2026-05-09 14:01 37.68975 26.91651 23 ft 8 kts 303°
2026-05-09 14:02 37.68986 26.91612 23 ft 7 kts 279°
2026-05-09 14:02 37.68992 26.91559 23 ft 5 kts 278°
2026-05-09 14:02 37.69022 26.91506 23 ft 8 kts 304°
2026-05-09 14:02 37.69023 26.91504 23 ft 0 kts 303°